Time,TemperatureF,DewpointF,PressureIn,WindDirection,WindDirectionDegrees,WindSpeedMPH,WindSpeedGustMPH,Humidity,HourlyPrecipIn,Conditions,Clouds,dailyrainin,SoftwareType,DateUTC
2013-01-16 00:12:00,-999.0,-99.9,-100.00,SE,143,3.0,5.0,-999,-99.99,,,-99.99,,2013-01-16 05:12:00,
2013-01-16 00:23:00,-999.0,-99.9,-100.00,SE,143,3.0,5.0,-999,-99.99,,,-99.99,,2013-01-16 05:23:00,
2013-01-16 01:43:00,-999.0,-99.9,-100.00,East,90,0.0,4.0,-999,-99.99,,,-99.99,,2013-01-16 06:43:00,
2013-01-16 03:12:00,-999.0,-99.9,-100.00,South,186,3.0,4.0,-999,-99.99,,,-99.99,,2013-01-16 08:12:00,
2013-01-16 04:43:00,-999.0,-99.9,-100.00,South,172,3.0,5.0,-999,-99.99,,,-99.99,,2013-01-16 09:43:00,
2013-01-16 05:22:00,-999.0,-99.9,-100.00,SSE,158,4.0,6.0,-999,-99.99,,,-99.99,,2013-01-16 10:22:00,
2013-01-16 06:12:00,-999.0,-99.9,-100.00,SSE,163,7.0,10.0,-999,-99.99,,,-99.99,,2013-01-16 11:12:00,
2013-01-16 07:43:00,-999.0,-99.9,-100.00,South,170,8.0,10.0,-999,-99.99,,,-99.99,,2013-01-16 12:43:00,
2013-01-16 08:13:00,-999.0,-99.9,-100.00,South,172,9.0,14.0,-999,-99.99,,,-99.99,,2013-01-16 13:13:00,
2013-01-16 09:12:00,-999.0,-99.9,-100.00,SSW,197,13.0,18.0,-999,-99.99,,,-99.99,,2013-01-16 14:12:00,
2013-01-16 09:43:00,-999.0,-99.9,-100.00,SSW,194,12.0,22.0,-999,-99.99,,,-99.99,,2013-01-16 14:43:00,
2013-01-16 10:03:00,-999.0,-99.9,-100.00,SSW,196,13.0,25.0,-999,-99.99,,,-99.99,,2013-01-16 15:03:00,
2013-01-16 11:12:00,-999.0,-99.9,-100.00,SSW,210,9.0,18.0,-999,-99.99,,,-99.99,,2013-01-16 16:12:00,
2013-01-16 11:43:00,-999.0,-99.9,-100.00,SW,232,13.0,17.0,-999,-99.99,,,-99.99,,2013-01-16 16:43:00,
2013-01-16 12:33:00,-999.0,-99.9,-100.00,WSW,252,26.0,33.0,-999,-99.99,,,-99.99,,2013-01-16 17:33:00,
2013-01-16 12:44:00,-999.0,-99.9,-100.00,WSW,250,29.0,36.0,-999,-99.99,,,-99.99,,2013-01-16 17:44:00,
2013-01-16 14:13:00,-999.0,-99.9,-100.00,West,266,23.0,26.0,-999,-99.99,,,-99.99,,2013-01-16 19:13:00,
2013-01-16 14:43:00,-999.0,-99.9,-100.00,West,260,23.0,28.0,-999,-99.99,,,-99.99,,2013-01-16 19:43:00,
2013-01-16 15:43:00,-999.0,-99.9,-100.00,WSW,250,24.0,27.0,-999,-99.99,,,-99.99,,2013-01-16 20:43:00,
2013-01-16 16:13:00,-999.0,-99.9,-100.00,West,262,24.0,30.0,-999,-99.99,,,-99.99,,2013-01-16 21:13:00,
2013-01-16 16:33:00,-999.0,-99.9,-100.00,West,264,26.0,31.0,-999,-99.99,,,-99.99,,2013-01-16 21:33:00,
2013-01-16 17:43:00,-999.0,-99.9,-100.00,West,275,20.0,26.0,-999,-99.99,,,-99.99,,2013-01-16 22:43:00,
2013-01-16 19:12:00,-999.0,-99.9,-100.00,NW,312,20.0,29.0,-999,-99.99,,,-99.99,,2013-01-17 00:12:00,
2013-01-16 19:43:00,-999.0,-99.9,-100.00,NNW,330,25.0,32.0,-999,-99.99,,,-99.99,,2013-01-17 00:43:00,
2013-01-16 20:43:00,-999.0,-99.9,-100.00,NW,319,21.0,30.0,-999,-99.99,,,-99.99,,2013-01-17 01:43:00,
2013-01-16 21:13:00,-999.0,-99.9,-100.00,NW,315,21.0,27.0,-999,-99.99,,,-99.99,,2013-01-17 02:13:00,
2013-01-16 22:12:00,-999.0,-99.9,-100.00,North,356,14.0,19.0,-999,-99.99,,,-99.99,,2013-01-17 03:12:00,
2013-01-16 22:22:00,-999.0,-99.9,-100.00,North,352,13.0,21.0,-999,-99.99,,,-99.99,,2013-01-17 03:22:00,
2013-01-16 22:43:00,-999.0,-99.9,-100.00,NNW,340,11.0,15.0,-999,-99.99,,,-99.99,,2013-01-17 03:43:00,
2013-01-16 23:43:00,-999.0,-99.9,-100.00,NNW,337,15.0,21.0,-999,-99.99,,,-99.99,,2013-01-17 04:43:00,